Regional Weather Roundup
Issued by NWS Austin/San Antonio, TX

Home | Current Version | Previous Version | Text Only | Print | Product List | Glossary On
Versions: 1 2 3 4 5 6 7 8 9 10 11 12 13 14 15 16 17 18 19 20 21 22 23 24 25 26 27 28 29 30 31 32 33 34 35 36 37 38 39 40 41 42 43 44 45 46 47 48 49 50
000
ASUS44 KEWX 272102
RWREWX
SOUTH TEXAS REGIONAL WEATHER ROUNDUP
NATIONAL WEATHER SERVICE AUSTIN/SAN ANTONIO TX
400 PM CDT WED MAY 27 2020

NOTE: "FAIR" INDICATED FEW OR NO CLOUDS BELOW 12,000 FEET WITH NO
SIGNIFICANT WEATHER AND/OR OBSTRUCTIONS TO VISIBILITY.

* - THESE STATIONS ARE NOT NWS OR FAA STATIONS...AND ARE NOT SUBJECT
    TO NWS AND FAA QUALITY CONTROL.

TXZ171-172-183>190-272200-
TEXAS HILL COUNTRY AND EDWARDS PLATEAU

CITY           SKY/WX    TMP DP  RH WIND       PRES   REMARKS
JUNCTION       SUNNY     92  54  27 S10G22    29.81F HX  90
*LLANO         MOSUNNY   91  64  40 SE5       29.84F HX  93
BURNET         MOSUNNY   88  60  38 MISG      29.84F
*HORSESHOE BAY PTSUNNY   91  61  35 SW9G16    29.83F HX  91
*LAGO VISTA    PTSUNNY   86  63  45 SW6       29.84F
*KERRVILLE     SUNNY     89  61  38 SW12G18   29.85F
*FREDERICKSBRG SUNNY     87  58  36 SW12      29.86F
*ROCKSPRINGS   SUNNY     90  52  27 S13       29.91F
*BOERNE        SUNNY     86  59  39 SW12G20   29.85F
HONDO          SUNNY     90  64  42 S14G22    29.82F HX  91
*UVALDE          N/A     91  64  41 S13       29.82F HX  92
DEL RIO        SUNNY    101  57  23 S20G26    29.75F HX 100
*LAUGHLIN AFB  SUNNY     96  61  31 SE15G22   29.77F HX  96
*SPOFFORD      NOT AVBL
*EAGLE PASS    SUNNY     97  61  30 S10G21    29.78F HX  97
CARRIZO SPRGS  SUNNY     91  68  46 S14G21    29.79F HX  95
$$

TXZ173-191>194-202-209-217>225-228-272200-
CENTRAL AND SOUTH CENTRAL TEXAS

CITY           SKY/WX    TMP DP  RH WIND       PRES   REMARKS
GEORGETOWN     LGT RAIN  77  62  59 E9        29.87F
*TAYLOR        MOSUNNY   74  64  69 E12G21    29.85F
AUSTIN/BERGSTM MOSUNNY   91  67  44 S14G22    29.81F HX  94
AUSTIN/MABRY   MOSUNNY   90  65  43 VRB6      29.82F HX  92
*PFLUGERVILLE  PTSUNNY   73  61  64 NE21G31   29.85S
SAN MARCOS     SUNNY     92  64  39 S12       29.83F HX  93
NEW BRAUNFELS  SUNNY     93  62  35 SW15      29.81F HX  93
*RANDOLPH AFB  MOSUNNY   91  62  38 S10G22    29.82F HX  91
*SEGUIN        SUNNY     89  64  42 SW10      29.86F HX  90
SAN ANTONIO    MOSUNNY   92  61  35 SW13G24   29.82F HX  92
STINSON FIELD  SUNNY     89  66  46 S13G23    29.79F HX  91
*KELLY FIELD   SUNNY     91  65  42 S14       29.80F HX  93
*PLEASANTON    SUNNY     93  65  39 S9G20     29.81F HX  96
*KENEDY        SUNNY     90  67  45 S12       29.83F HX  93
*LA GRANGE     CLOUDY    90  69  48 SW10      29.81F HX  94
*GIDDINGS      CLOUDY    74  63  68 E15G22    29.87R
*GONZALES      CLOUDY    91  67  44 S12G17    29.82F HX  94
$$

TXZ163>164-176>182-195>201-210>213-226-227-235-272200-
SOUTHEAST TEXAS

CITY           SKY/WX    TMP DP  RH WIND       PRES   REMARKS
COLLEGE STN    LGT RAIN  66  64  93 SE9       29.88F
*BRYAN         LGT RAIN  66  66 100 S6        29.89F
*CALDWELL      CLOUDY    68 N/A N/A E12       29.88F
*CROCKETT      NOT AVBL
*BRENHAM         N/A    N/A N/A N/A MISG        N/A
HUNTSVILLE     RAIN      71  64  78 S9        29.91R
CONROE         TSTM      65  61  87 N16G39    29.89R FOG
HOUSTON BUSH   TSTM      79  70  74 CALM      29.81F
HOUSTON HOBBY  PTSUNNY   88  65  46 S10G21    29.79F HX  90
*HOUSTON SW AP MOSUNNY   87  71  60 SW12G17   29.81F HX  92
PEARLAND       MOSUNNY   86  71  60 S12       29.82F HX  91
HOUSTON HOOKS  TSTM      76  69  79 W10G17    29.86R
ELLINGTON FLD  PTSUNNY   84  72  65 S16G24    29.80F
SUGAR LAND     MOSUNNY   87  68  52 SW9G20    29.80F HX  90
*HOUSTON EXEC  MOSUNNY   86  64  48 SW8G20    29.85R
*CLEVELAND MUN CLOUDY    76  62  61 NE6G17    29.87R
*WHARTON       MOSUNNY   86  65  49 S20G25    29.84F
*COLUMBUS      FAIR      87  70  57 S13       29.83F HX  92
*EAGLE LAKE    CLOUDY    89  71  55 SW14      29.81  HX  95
$$

TXZ214>216-236>238-272200-
THE UPPER TEXAS COAST

CITY           SKY/WX    TMP DP  RH WIND       PRES   REMARKS
*ORANGE        MOSUNNY   86  67  51 SW5       29.85F
PORT ARTHUR    MOSUNNY   86  72  62 S13       29.83F HX  92
GALVESTON      MOSUNNY   86  71  60 S17G24    29.84F HX  91
ANGLETON       MOSUNNY   87  66  49 S20       29.83F
*BAY CITY      MOSUNNY   88  72  59 S18       29.85F HX  95
PALACIOS       PTSUNNY   84  72  67 S17       29.85F
$$

TXZ229>234-239>247-272200-
TEXAS COASTAL BEND AND RIO GRANDE PLAINS

CITY           SKY/WX    TMP DP  RH WIND       PRES   REMARKS
VICTORIA       MOSUNNY   90  69  50 S21       29.83F HX  94
*BEEVILLE      MOSUNNY   90  74  59 S16       29.82F HX 100
ROCKPORT       SUNNY     86  71  60 S15G23    29.84F HX  91
*PORT ARANSAS  MOSUNNY   85  73  67 S13       29.87F HX  91
*PORT LAVACA   MOSUNNY   88  73  62 S14G23    29.85F HX  96
*INGLESIDE     SUNNY     86  75  68 S17G24    29.85F HX  95
CORPUS CHRISTI MOSUNNY   86  76  71 SE17      29.84F HX  96
CORPUS NAS     MOSUNNY   87  75  67 S20G25    29.85F HX  96
*ROBSTOWN      SUNNY     91  73  56 SE16      29.84F HX  98
ALICE          MOSUNNY   93  69  45 S15G22    29.82F HX  98
KINGSVILLE NAS MOSUNNY   93  67  42 S15G23    29.82F HX  96
COTULLA        MOSUNNY   93  69  45 SW10G17   29.80F HX  98
LAREDO         MOSUNNY   91  70  49 S18G24    29.81F HX  96
$$

TXZ248>255-272200-
DEEP SOUTH TEXAS

CITY           SKY/WX    TMP DP  RH WIND       PRES   REMARKS
BROWNSVILLE    SUNNY     93  65  39 SE12      29.84F HX  95
PORT ISABEL    SUNNY     91  66  43 SE15      29.84F HX  93
HARLINGEN      MOSUNNY   93  70  46 S14G22    29.83F HX  99
*HEBBRONVILLE  MOSUNNY   89  65  46 S9G18     29.86F HX  90
MCALLEN        SUNNY     92  69  47 S16G23    29.85F HX  97
*WESLACO       SUNNY     93  67  43 S16       29.84F HX  96
FALFURRIAS     NOT AVBL
EDINBURG       MOSUNNY   92  66  43 S10G18    29.84F HX  94
*ZAPATA        NOT AVBL
$$

TXZ213>215-236>238-242>244-246-247-251-254-255-272200-
CMAN STATIONS

STATION/POSITION TIME  TEMP    WIND        PRES    WAVE
                       AIR SEA DIR/SP/G            HT/PER
                 (UTC) (F)     (DEG/KT/KT) (MB)    (FT/S)
SABINE PASS      2018   83 83  210/ 13/ 18 1012.8
NORTH JETTY/GLS  2018   80 82  190/ 17/ 19 1010.2
EAGLE POINT      2024   81 82  200/ 20/ 24 1010.2
MORGANS POINT    2024   83 83  160/ 14/ 17 1010.0
PORT O`CONNOR    2018   80 85  180/ 18/ 20 1011.1
PORT ARANSAS     2000   80 83  160/ 15/ 16 1011.9
MALAQUITE BEACH  2024   81 91  150/ 18/ 20 1011.1
BAFFIN BAY       2018   83 89  130/ 15/ 19 1011.6
PORT ISABEL      2024   85 81  140/ 11/ 13 1013.4
$$



USA.gov is the U.S. government's official web portal to all federal, state and local government web resources and services.